Terminal Aerodrome Forecast
Issued by NWS Charleston, WV

Current Version | Previous Version | Graphics & Text | Print | Product List | Glossary On
Versions: 1 2 3 4 5 6 7 8 9 10 11 12 13 14 15 16 17 18 19 20 21 22 23 24 25 26 27 28 29
000
FTUS41 KRLX 281400 AAB
TAFCRW
TAF AMD
KCRW 281459Z 2815/2912 21012G23KT P6SM SCT040
     FM281900 22011G19KT P6SM BKN050
     FM282100 24005KT 5SM BR VCTS OVC035CB
     FM290000 26004KT 3SM SHRA BR OVC025=

USA.gov is the U.S. government's official web portal to all federal, state and local government web resources and services.